sat.trackr.live / text

‹ back to catalog

2023-091R

NORAD 57181 · 2023-091R

PAYLOAD ACTIVE UNKNOWN

§ Identity

Operator
Country
CIS
Launch date
2023-06-27
Launch site
VOSTO
Launch vehicle
Mass (kg)
RCS (m²)

External: N2YO · Heavens-Above · Gunter

§ Orbital elements

Epoch: 2026-05-25T04:00:59.236128Z

Period
95.09 min
Inclination
97.5080°
Eccentricity
0.0014320
Mean motion
15.14327558 rev/d
Perigee alt
513.1 km
Apogee alt
532.9 km
Semi-major
6,901.2 km
B*
1.7956e-4
RAAN
199.4234°
Arg perigee
211.6625°
Mean anomaly
148.3747°
Rev number
16,020

§ Raw data

2023-091R1 57181U 23091R   26145.16735227  .00003231  00000+0  17956-3 0  99972 57181  97.5080 199.4234 0014320 211.6625 148.3747 15.14327558160202

JSON: /api/v1/satellites/57181 · /tle

For live sub-satellite position, see the globe view (requires WebGL).

§ Visibility from observer

Set your observer location to see the next 7 days of passes ≥ 10°. The values pass through the URL so the page stays shareable.

No JS? Fill the form by hand. The geolocation button needs JavaScript.